Wind_Speed
43 44 45 46 47 48 49 50 51 51 51 51 52 52 52 52 52 52 52 52 53 53 53 53 54 54 54 55 55 55 56 56 57 58 59 59 60 60 60 61 60 59 57 57 55 54 52 49 48 47 46 45 43 41 40 40 39 38 38 38 38 37 37 36 35 35 35 35 35 35 34 34 34 34 34 34 34 34 35 36 37 38 38 40 42 43 44 46
43 45 46 47 48 49 50 51 52 52 52 52 53 53 53 52 52 53 53 53 54 54 54 55 55 55 56 56 57 58 58 59 59 59 60 60 60 59 59 59 58 56 53 51 49 47 44 43 41 40 38 37 35 34 33 32 32 32 32 32 32 32 32 32 31 32 31 31 31 31 31 31 32 31 32 32 33 34 35 37 39 40 41 41 43 46 46 47
44 46 47 48 49 51 51 52 52 52 53 53 53 54 54 53 53 53 54 55 55 55 56 56 57 57 58 58 59 59 60 60 60 60 60 59 58 56 55 54 53 50 47 44 41 39 37 36 34 32 30 29 28 27 26 25 26 27 27 28 28 28 28 28 28 28 28 28 28 28 29 29 30 30 31 32 34 36 37 38 40 42 43 43 45 47 49 49
45 47 48 49 50 51 52 52 53 53 53 53 54 54 54 54 54 55 55 56 57 57 58 59 59 59 59 60 60 61 61 60 60 59 58 56 54 52 50 48 45 42 39 36 34 32 30 28 26 24 23 21 20 19 20 21 22 23 24 25 25 25 25 25 25 25 25 26 27 27 28 28 29 31 32 34 35 37 39 41 42 43 45 46 46 48 50 52
46 47 48 50 50 51 52 52 53 53 53 54 54 54 54 55 56 57 58 58 59 59 60 60 60 60 60 60 60 61 60 58 57 55 53 50 47 44 42 39 37 34 32 30 28 26 24 22 19 17 16 15 15 16 17 18 19 20 21 21 21 22 22 22 23 23 24 25 26 26 27 28 30 32 34 35 37 39 40 42 44 45 46 47 48 49 51 53
46 48 49 50 50 51 52 52 53 53 54 54 54 55 55 56 58 59 59 60 60 60 61 61 61 60 60 59 58 57 55 53 50 48 45 42 39 36 33 32 30 27 25 23 21 19 16 14 13 12 12 12 13 14 15 16 16 17 18 18 19 20 21 22 22 23 24 24 26 27 28 30 32 34 35 36 39 41 41 43 45 47 48 49 50 51 52 54
47 48 49 50 50 51 52 52 53 54 54 55 55 56 57 57 58 59 60 60 60 60 60 60 59 57 56 54 52 49 46 43 41 38 36 33 31 28 26 24 22 19 17 15 14 12 11 10 10 10 10 10 11 12 12 13 14 15 16 18 19 20 21 21 22 23 24 25 26 28 30 31 33 36 37 37 40 43 43 44 47 49 51 52 52 53 54 56
46 47 48 49 50 50 51 52 52 53 54 55 55 56 56 57 58 58 59 58 58 57 56 54 52 50 47 44 41 38 36 33 31 29 27 25 23 21 18 16 14 12 11 10 9 9 9 9 9 9 9 9 10 10 11 12 14 15 16 17 18 19 20 21 22 23 24 26 27 29 32 33 34 38 40 39 42 45 46 47 48 50 53 55 55 56 57 58
45 46 47 47 48 49 49 50 50 51 52 52 53 53 54 54 54 54 53 52 50 49 47 44 42 39 36 33 30 28 26 25 23 21 19 17 15 13 10 9 8 8 8 8 9 9 9 9 9 9 9 9 9 10 11 12 13 14 15 16 17 19 20 21 23 24 26 27 28 31 35 36 35 39 43 42 43 47 49 50 51 52 55 57 58 59 59 60
43 43 43 44 44 44 44 45 45 46 46 46 47 47 47 46 45 44 43 41 39 37 35 33 30 28 26 24 22 20 19 17 14 12 10 9 7 7 7 7 8 9 10 10 11 11 10 10 9 9 9 8 9 9 10 10 12 13 14 16 17 19 20 22 24 25 27 29 30 33 38 40 37 40 46 46 46 49 51 52 54 56 58 59 60 61 62 63
36 35 35 35 35 35 35 35 36 36 36 37 37 37 37 36 35 33 32 30 28 26 24 22 21 19 18 16 15 13 11 9 7 6 6 7 8 10 11 12 12 13 13 13 12 11 11 10 8 7 7 6 6 7 8 9 11 13 15 17 18 21 22 24 26 27 29 31 32 34 41 45 42 42 47 48 49 51 52 55 56 58 61 62 62 62 64 67
25 24 24 24 24 24 25 25 26 27 27 27 27 27 26 26 25 23 22 20 18 17 16 15 14 12 11 10 8 8 7 8 10 11 12 14 14 15 15 15 15 14 14 13 11 10 8 6 5 3 3 4 5 7 9 11 13 15 17 19 21 23 24 26 27 29 32 33 34 35 41 50 48 46 49 51 52 52 54 57 59 61 63 64 65 64 66 69
14 14 14 14 14 15 16 17 18 18 18 18 18 18 18 17 16 15 14 13 12 12 11 11 10 10 10 11 12 13 15 16 17 17 18 18 17 17 16 15 14 13 12 10 8 6 4 2 1 2 4 6 8 10 12 13 16 17 19 21 24 26 27 29 30 32 34 36 37 36 39 51 55 52 52 54 55 54 54 58 62 65 66 67 67 67 68 71
8 8 8 7 7 8 8 9 10 11 12 12 12 12 12 12 11 12 11 12 12 13 13 14 15 16 17 19 19 20 21 21 21 20 19 18 17 16 15 13 12 10 9 7 5 4 2 3 4 5 7 9 11 13 15 16 19 20 22 24 26 29 31 32 33 35 37 38 40 40 38 48 59 60 58 57 58 57 56 59 63 66 68 70 71 70 70 72
9 10 11 11 10 10 9 8 8 9 9 10 10 11 12 13 14 15 16 17 18 19 20 21 21 23 23 23 23 23 23 22 21 20 19 17 16 14 13 11 9 8 7 5 4 4 5 6 7 9 11 13 14 16 18 20 22 23 25 27 28 31 33 35 36 38 39 40 43 44 41 46 57 65 66 63 61 60 60 63 65 66 68 71 74 75 75 74
13 15 17 18 18 17 16 15 14 14 14 15 15 16 17 18 19 20 22 23 24 25 26 26 26 26 26 25 25 24 22 21 20 19 17 15 14 12 11 9 8 7 7 6 6 7 7 9 10 12 13 15 17 19 20 22 24 26 28 30 31 33 35 37 39 40 41 42 46 48 44 46 56 65 70 70 68 65 64 66 69 69 70 72 75 78 80 80
17 19 22 23 24 23 23 22 22 21 21 21 22 23 24 25 26 27 28 29 30 30 30 30 29 27 26 25 24 23 21 20 18 17 15 13 12 10 9 7 6 5 5 5 6 8 9 11 13 15 16 18 20 22 24 25 27 29 30 33 34 37 38 39 42 43 44 44 48 51 48 49 57 64 70 74 74 72 70 70 71 72 73 74 77 80 84 85
23 25 26 27 28 28 28 28 28 27 27 28 29 29 29 30 31 32 32 32 32 32 31 29 28 26 24 23 22 20 19 17 15 14 12 10 8 6 4 2 2 4 6 7 9 11 13 15 16 18 20 22 23 25 27 28 30 32 34 36 37 40 43 43 44 46 47 48 51 55 53 54 60 65 69 74 77 77 77 77 76 76 76 77 79 82 85 88
28 30 31 32 32 32 32 32 32 32 32 33 34 34 33 33 32 33 32 32 31 30 29 28 26 24 22 21 19 17 15 13 11 9 7 5 3 1 1 4 6 7 9 11 13 15 16 18 20 22 24 25 27 29 31 32 34 36 37 40 41 43 47 49 49 50 51 52 55 59 58 60 64 67 70 74 77 79 80 81 82 82 81 81 83 84 87 89
32 34 35 36 36 36 36 36 36 35 35 35 35 35 34 32 31 31 30 29 28 28 27 26 23 20 19 17 15 13 11 9 7 5 3 2 2 4 6 8 9 11 13 15 17 18 20 22 24 26 28 29 31 33 35 36 38 40 41 44 46 46 49 54 55 55 56 56 58 61 62 65 69 70 72 75 78 81 83 84 85 86 87 87 87 88 90 91
35 37 37 38 38 39 39 39 39 38 36 35 35 34 33 31 30 30 29 28 26 25 24 22 19 17 15 13 11 9 7 5 4 3 3 4 6 8 10 11 13 15 16 18 20 22 24 26 28 30 32 33 35 37 40 41 42 44 46 48 51 51 52 57 60 60 61 61 62 64 64 69 73 75 76 79 81 84 85 86 87 88 90 91 92 92 93 94
38 38 39 39 39 39 40 40 40 38 37 35 34 33 31 29 27 26 26 25 22 21 19 17 15 13 11 9 7 5 3 3 3 4 6 8 10 11 13 15 17 18 20 22 24 26 28 30 32 34 36 37 39 41 44 46 47 48 50 52 55 56 56 58 62 65 67 66 66 66 68 72 76 78 81 84 85 86 86 88 89 90 92 94 95 95 95 96
39 39 39 39 39 39 39 39 38 36 35 34 32 29 27 26 24 22 21 21 19 16 14 13 11 9 7 4 3 1 2 5 6 8 10 12 13 15 17 19 20 22 24 26 28 30 32 34 36 38 40 41 43 45 47 51 53 53 54 56 58 61 61 61 64 68 71 73 72 70 70 75 79 81 84 88 89 89 89 90 91 92 93 95 96 97 97 97
39 39 38 38 38 37 37 36 34 33 32 31 28 25 24 22 20 18 16 16 15 12 10 8 6 4 2 0 2 4 6 8 10 11 13 15 17 19 21 23 25 26 28 31 32 34 36 38 40 42 44 45 47 49 51 53 57 59 59 60 62 64 66 67 67 69 73 77 78 76 74 77 81 83 86 89 91 91 91 92 93 95 95 96 96 97 98 99
36 36 35 34 34 33 33 31 30 29 28 26 23 21 20 18 16 14 12 11 9 8 6 4 3 2 2 4 6 8 9 11 13 15 17 19 21 23 25 27 29 31 33 35 37 39 41 43 44 46 48 50 51 53 55 57 60 63 65 66 67 68 71 72 73 73 74 78 82 81 79 78 82 85 87 89 91 92 93 93 94 96 97 97 96 96 97 98
33 32 31 30 29 28 28 27 26 25 24 21 19 18 16 13 11 10 7 5 4 3 2 1 3 5 6 8 10 12 14 15 17 20 21 23 26 27 30 32 34 36 38 40 42 43 45 47 49 51 52 54 56 57 59 61 63 65 68 70 72 73 75 76 78 78 79 81 83 85 84 81 82 85 86 87 89 91 92 93 94 95 96 96 96 96 96 97
29 28 27 25 25 24 24 23 21 20 18 16 15 13 11 8 6 4 2 1 1 2 5 6 7 9 11 12 15 16 19 20 22 24 26 28 30 32 34 36 38 40 42 44 46 48 49 51 53 55 57 58 60 62 63 65 66 68 70 72 74 76 78 80 81 82 83 84 85 87 87 85 85 86 85 86 88 89 91 93 94 97 98 99 99 99 99 99
25 24 23 21 21 20 19 18 17 16 14 11 9 7 6 3 1 2 2 3 5 7 9 11 12 14 15 17 19 21 23 25 27 29 30 32 34 36 38 41 43 45 46 48 50 52 54 55 57 59 61 63 64 66 67 68 70 72 73 75 76 78 80 81 83 85 86 87 88 88 89 88 88 88 88 88 90 89 90 91 94 97 99 101 102 102 103 103
21 20 19 18 17 16 15 13 12 11 9 7 5 3 2 2 3 5 7 8 10 11 13 15 17 19 20 22 24 25 28 29 31 33 35 37 39 41 43 45 48 50 52 54 55 57 58 60 61 63 65 67 68 69 71 72 73 75 76 78 80 81 82 84 85 87 88 89 90 91 91 91 91 92 92 92 92 92 91 92 93 97 100 102 104 104 104 104
17 16 15 13 12 11 10 9 8 7 6 4 4 4 4 6 8 10 11 13 14 16 18 20 21 23 25 27 28 30 32 34 36 37 39 41 43 45 47 48 51 53 55 58 60 61 62 64 65 67 68 70 72 74 76 76 77 79 80 81 82 84 86 87 88 89 90 91 93 94 94 95 96 97 97 97 97 96 95 95 95 97 99 100 101 101 101 100
12 11 10 9 8 7 6 5 5 5 5 6 6 7 9 10 12 14 16 17 19 21 22 24 26 27 29 31 33 34 36 38 40 41 43 45 47 49 51 53 55 57 60 63 65 66 67 69 70 71 73 74 76 78 81 82 83 84 84 84 84 85 87 88 90 91 91 92 94 95 96 98 100 103 102 101 101 100 99 98 96 94 94 93 94 94 94 94
8 7 6 5 4 4 5 5 6 7 8 9 10 11 13 14 16 18 19 21 23 25 26 28 30 31 33 35 37 38 40 42 44 46 48 50 51 54 55 57 58 60 62 65 68 71 73 73 75 76 77 78 79 81 83 86 87 88 88 89 89 88 88 89 89 90 90 90 94 96 97 98 101 105 105 101 99 98 98 96 94 91 89 88 89 89 89 89
4 3 3 3 4 5 6 7 9 10 11 13 14 15 17 19 20 21 23 25 27 28 30 32 34 35 37 39 41 42 44 46 48 49 51 53 55 57 58 59 60 61 62 65 68 71 74 76 77 79 80 81 82 82 84 86 88 89 90 90 92 92 91 91 90 89 88 87 90 93 95 96 97 101 102 98 93 93 94 94 92 90 89 87 86 86 87 88
1 1 2 4 6 7 9 10 12 13 15 16 18 19 21 22 24 25 27 28 30 32 34 36 37 39 41 43 45 46 48 50 51 53 54 57 58 60 61 63 64 65 66 67 69 72 75 76 77 79 80 81 83 84 85 87 89 90 92 93 94 96 96 95 94 92 89 85 85 86 87 90 92 94 96 93 90 91 92 92 91 90 90 89 87 85 85 87
2 4 5 7 9 10 12 14 15 17 18 20 21 23 24 26 27 29 30 32 34 35 37 39 41 43 45 47 48 50 51 53 55 56 57 59 60 62 63 65 67 68 69 70 71 73 76 79 79 80 81 83 84 86 88 90 92 94 96 96 97 98 98 97 95 93 90 85 82 83 83 86 90 92 93 90 89 91 92 91 90 90 91 90 88 86 85 85
6 7 9 10 12 13 15 17 18 20 21 23 24 26 28 29 31 33 34 36 38 40 42 43 45 47 48 50 51 53 54 55 56 58 59 61 62 64 65 66 67 69 70 71 72 73 75 80 82 83 84 86 87 89 91 92 94 95 95 95 95 95 95 94 92 90 89 85 83 83 84 86 91 93 91 89 89 91 91 90 89 90 90 90 89 87 85 85
9 11 12 14 15 17 18 20 21 23 25 27 28 30 31 33 35 37 38 40 42 43 45 46 48 49 50 52 53 55 56 57 58 60 61 63 64 66 67 68 69 70 71 72 73 74 75 79 83 85 86 87 88 89 90 90 91 92 92 92 92 92 92 92 91 90 89 87 84 84 84 87 92 94 90 88 89 90 89 87 87 88 90 91 90 88 86 85
12 14 15 17 18 20 22 23 25 26 28 30 31 33 35 37 38 40 42 43 44 45 47 48 49 50 52 53 55 57 58 60 61 63 64 65 67 68 69 70 71 73 74 76 77 78 78 79 82 85 85 85 85 85 85 86 88 90 91 92 92 92 91 90 90 91 91 89 88 84 81 84 91 94 90 89 91 92 89 87 86 88 90 92 92 91 88 86
16 17 19 20 21 23 25 26 28 29 31 33 35 36 38 40 41 42 44 45 46 47 48 49 51 52 53 55 57 58 60 62 63 65 66 67 68 69 71 73 74 75 77 78 79 79 79 78 78 81 83 83 83 83 83 84 87 90 92 93 94 94 92 89 89 92 93 93 93 88 79 79 87 93 92 92 94 94 93 91 90 91 92 93 94 94 92 90
19 20 21 23 24 26 27 29 31 32 34 36 38 39 40 42 43 44 45 46 47 49 50 52 53 54 56 57 59 61 62 63 64 65 67 68 70 71 73 75 76 77 77 78 77 77 77 76 75 77 80 83 85 85 84 84 86 89 91 93 95 94 93 90 88 90 92 94 97 93 82 75 81 89 92 94 95 95 95 95 95 95 95 95 96 96 96 94
22 23 24 25 27 29 30 32 34 35 37 38 40 41 42 43 44 46 47 48 50 51 52 54 56 57 59 60 61 62 63 64 66 67 69 70 72 72 73 74 74 74 74 74 74 74 75 75 75 76 79 81 83 84 83 83 84 87 89 91 94 94 94 93 89 88 89 91 96 97 87 76 76 84 90 93 95 95 95 96 97 98 98 98 98 99 99 98
24 25 27 28 30 32 33 35 36 38 39 40 41 42 43 45 46 47 49 50 52 53 55 56 57 58 60 61 62 64 65 67 68 70 70 71 71 71 71 71 70 70 71 71 73 73 74 74 74 74 76 80 82 83 81 79 79 81 84 87 91 92 94 94 92 91 90 90 95 97 92 81 75 80 88 91 92 92 92 94 98 99 100 101 101 101 101 102
26 28 30 31 32 34 35 37 38 39 40 41 42 44 45 46 48 49 51 52 54 55 56 57 58 59 61 62 64 66 67 68 69 70 70 69 69 69 68 68 68 69 70 71 72 73 74 74 73 71 71 72 74 75 74 74 75 77 80 83 87 88 89 90 90 93 92 91 94 96 95 88 79 80 87 89 88 89 90 93 96 98 100 101 101 102 103 105
29 30 32 33 34 35 37 38 39 40 41 42 44 45 47 48 50 51 52 53 54 55 56 58 60 61 63 65 66 66 67 67 67 67 66 66 66 67 67 68 68 69 70 70 71 72 73 74 73 73 72 70 68 66 65 65 68 71 74 78 80 83 85 85 87 91 92 92 92 94 97 95 87 85 87 86 86 88 90 93 95 97 99 100 101 102 104 106
31 32 33 34 36 37 37 39 40 41 43 44 45 47 48 49 50 51 52 53 54 56 58 60 62 63 64 65 65 65 65 64 63 63 63 64 65 66 67 68 68 69 69 68 68 68 69 70 71 71 74 76 75 71 69 67 66 68 71 73 75 78 82 83 85 88 91 92 90 90 96 98 94 91 90 88 88 91 93 95 96 97 98 99 100 101 104 106
32 34 35 36 37 38 39 40 41 43 44 45 46 47 48 49 50 51 52 54 56 58 60 61 62 63 63 63 62 61 61 61 61 62 63 64 65 66 67 67 67 67 67 66 66 65 65 66 66 65 68 73 74 72 72 72 71 71 73 74 73 75 78 81 84 86 91 93 89 87 94 98 97 96 95 94 94 96 97 99 98 98 99 99 99 101 103 105
33 34 36 36 38 39 40 41 42 43 44 45 46 47 48 48 50 52 54 56 58 59 59 59 59 58 58 57 57 58 59 60 61 61 62 63 65 66 66 67 68 68 68 67 65 65 64 63 62 59 62 68 70 68 68 69 71 73 75 76 75 75 77 81 83 85 89 93 91 88 91 97 99 100 100 100 100 100 102 104 103 102 103 102 101 102 103 104
34 35 36 37 39 40 41 41 42 43 43 44 45 46 48 50 52 54 56 56 57 57 56 55 54 53 53 53 54 55 57 58 60 61 62 63 64 66 67 68 69 69 68 68 66 65 64 63 61 57 58 65 68 66 66 67 69 72 74 76 78 79 80 83 84 84 87 91 92 91 92 96 100 101 102 102 103 104 106 107 107 107 108 107 104 104 104 104
35 36 37 39 39 39 39 40 41 42 43 45 46 48 50 52 54 55 55 54 53 52 51 50 50 50 51 52 54 55 56 57 59 60 61 63 64 65 66 67 68 69 68 68 67 66 65 64 63 59 58 63 67 66 65 67 69 70 72 75 79 82 83 85 86 86 87 91 93 94 95 97 100 103 104 104 105 106 107 109 109 110 110 109 106 104 104 104
36 37 37 37 37 37 38 40 41 43 44 46 48 51 52 53 53 52 51 49 48 48 47 48 49 51 52 54 56 58 59 60 61 61 62 63 64 66 67 68 69 70 70 69 70 71 69 68 69 65 60 62 66 65 64 66 69 70 71 73 78 82 84 86 87 88 89 91 93 95 96 98 100 102 103 103 104 105 106 107 108 108 108 107 104 102 100 99
36 36 35 35 36 37 39 41 42 44 46 48 50 51 52 51 50 48 47 46 46 46 48 49 51 53 55 57 58 60 61 61 62 63 64 65 67 70 72 73 73 73 74 73 74 76 76 74 74 72 66 65 67 66 64 66 69 70 72 73 76 81 84 87 89 90 92 93 94 96 97 99 100 100 100 99 98 98 99 100 102 102 102 100 98 96 95 93
33 32 33 35 37 39 40 42 44 46 48 50 51 50 49 48 46 45 44 45 46 47 49 51 53 55 56 58 59 60 60 61 63 66 68 70 72 76 79 80 79 79 79 78 79 81 81 80 79 78 75 71 72 70 68 68 69 70 74 76 79 82 86 88 90 92 94 96 98 99 100 100 100 100 99 96 94 92 92 93 95 97 96 93 91 91 90 90
Wind_Direction
249 250 250 250 250 250 250 251 252 252 252 253 254 255 256 257 258 260 260 261 263 264 265 267 268 269 271 272 273 274 274 275 277 278 279 279 279 280 280 279 279 278 277 276 276 275 274 273 270 269 268 268 267 266 265 265 266 266 267 268 269 269 269 268 267 265 264 263 262 262 262 262 261 262 263 264 265 266 268 269 271 272 273 274 276 278 278 280
252 252 252 252 252 252 252 253 253 254 254 254 255 256 257 258 259 261 262 263 264 266 267 268 269 271 272 273 274 275 276 277 277 278 279 279 280 280 280 280 280 279 279 278 277 276 275 272 269 267 265 264 263 262 262 263 263 263 264 264 265 265 264 263 262 261 260 260 259 258 258 259 259 260 262 264 266 268 269 270 272 273 275 276 277 279 279 280
253 253 253 253 253 253 254 254 255 255 256 256 257 258 259 260 261 262 264 265 266 267 268 269 270 271 273 274 275 276 277 277 278 278 278 279 279 279 278 278 279 279 279 279 277 275 272 269 266 264 261 260 259 258 258 257 257 257 258 259 259 259 259 258 258 257 256 255 254 254 255 257 259 261 263 265 267 270 271 272 273 275 276 277 278 280 281 281
254 254 254 254 254 255 255 256 257 258 258 259 259 260 261 262 263 263 264 265 266 268 269 270 271 272 273 274 275 276 276 277 277 278 277 277 277 276 276 276 277 277 276 275 272 270 267 265 262 259 256 254 252 251 249 249 249 251 252 253 254 255 255 254 252 251 250 250 251 252 255 258 261 264 266 268 269 271 273 274 275 277 278 279 279 280 282 283
255 255 255 256 256 257 257 258 259 259 260 261 261 262 262 263 264 264 265 266 267 268 269 270 271 272 273 274 275 275 276 276 276 277 276 276 275 275 274 274 273 272 270 269 267 265 262 258 255 250 244 240 238 239 239 241 243 246 248 249 249 249 248 247 245 244 245 248 251 253 257 261 264 267 269 272 274 274 276 278 278 278 279 280 280 281 282 284
255 256 256 257 257 258 258 259 259 260 261 261 262 262 262 263 264 265 266 266 267 268 269 270 272 272 273 273 273 274 274 275 275 275 275 275 274 272 271 270 269 268 267 265 261 257 252 246 239 231 226 225 227 230 232 235 239 241 243 244 243 241 240 239 240 242 245 249 254 258 262 264 268 270 271 274 277 277 278 280 281 281 281 281 282 282 283 284
257 257 258 258 259 259 260 260 260 261 261 261 261 262 262 263 264 265 266 267 268 269 270 270 271 271 271 271 272 272 272 272 271 271 271 271 270 269 268 267 265 263 260 253 246 238 228 219 212 209 209 212 216 220 225 229 231 233 235 235 235 235 236 238 241 245 250 254 259 264 267 269 272 274 274 275 279 280 280 281 283 284 283 283 283 283 284 284
260 260 261 261 261 261 261 261 261 262 261 262 262 262 263 263 264 265 266 267 267 268 269 269 269 270 270 270 269 269 268 267 266 266 266 266 265 264 262 260 255 247 237 225 213 201 193 188 187 187 191 197 204 210 216 220 224 226 229 231 233 236 240 244 248 252 257 261 266 270 272 272 275 278 278 277 280 282 281 281 282 284 284 284 284 283 284 284
262 262 262 262 263 263 263 262 262 262 262 263 263 263 263 263 264 264 264 265 265 266 266 266 267 267 266 265 263 261 260 260 260 260 260 259 257 252 244 234 222 208 195 183 173 167 162 161 163 168 177 185 195 203 211 218 224 228 232 237 241 246 250 255 258 262 265 268 272 276 277 276 277 281 282 280 281 283 283 283 283 283 283 284 284 284 284 284
264 264 264 264 263 263 262 262 261 261 261 261 260 260 260 260 260 260 261 261 261 262 262 262 261 260 258 256 254 253 253 252 250 247 243 238 226 209 191 177 169 161 154 148 144 143 144 148 155 163 174 184 196 209 218 227 235 240 245 251 255 258 261 265 268 270 273 275 277 281 283 280 279 282 284 283 283 283 284 284 284 284 283 283 283 284 285 285
265 264 263 262 261 260 259 258 257 257 256 256 256 256 255 255 255 255 255 255 255 255 254 253 251 249 247 244 241 238 234 225 211 193 175 164 155 149 145 142 139 136 133 132 132 135 139 146 154 164 178 194 213 229 240 249 255 259 262 265 268 269 270 271 274 276 278 279 280 284 288 285 282 282 284 284 283 283 284 285 285 284 283 283 283 284 285 285
261 260 258 256 255 254 253 252 252 252 251 251 251 250 250 249 248 247 246 245 243 241 239 235 231 227 221 212 200 183 165 152 142 138 137 137 135 133 131 129 127 126 125 126 127 129 133 139 148 166 206 238 257 263 268 270 272 273 274 275 275 275 276 276 278 280 281 282 283 285 289 289 285 281 281 282 282 282 284 284 284 284 284 284 285 286 286 286
252 247 244 243 242 243 243 244 245 244 244 243 241 239 238 235 232 229 226 221 216 210 203 195 184 174 161 147 141 135 131 131 130 130 130 129 126 123 120 118 116 115 114 112 108 107 105 96 60 300 287 280 280 280 279 280 280 280 280 282 282 281 281 280 280 282 282 283 284 284 288 290 288 283 279 279 280 281 283 283 284 284 284 284 285 285 286 288
210 200 196 195 197 201 207 215 218 219 219 218 215 212 208 203 197 190 183 175 167 159 152 146 139 134 130 128 128 127 127 127 125 122 120 116 112 108 105 103 100 96 91 86 76 64 40 348 317 302 296 292 291 290 288 288 287 286 285 285 287 286 286 284 283 283 282 283 283 281 283 288 289 286 281 279 279 280 281 282 282 284 285 286 286 286 286 287
151 143 136 132 130 131 137 145 156 163 166 167 165 162 159 156 153 150 146 141 136 131 127 125 124 123 123 123 121 121 120 117 112 109 105 101 97 93 89 85 81 72 60 49 30 5 343 325 315 308 303 299 297 294 291 289 287 286 285 283 283 284 285 285 284 283 283 283 283 282 282 285 288 288 285 282 281 281 282 281 281 283 286 288 289 289 288 287
123 119 115 111 109 109 111 115 119 123 127 129 131 132 131 131 130 128 126 123 121 120 119 117 118 117 116 115 113 111 108 104 100 96 92 88 83 79 71 64 55 43 27 10 351 335 320 310 303 298 293 290 287 284 282 281 281 280 280 280 279 279 280 281 281 282 282 283 284 283 284 285 285 285 286 285 283 282 281 280 281 282 284 285 287 289 289 289
109 108 107 106 105 105 106 107 109 111 113 115 117 118 118 119 118 117 116 115 115 115 114 113 112 109 108 108 105 100 96 92 88 83 78 72 66 60 52 42 29 12 350 329 310 297 290 284 281 279 277 277 276 277 276 276 277 278 279 280 280 279 278 279 280 281 283 284 284 283 284 284 282 283 285 286 286 285 284 282 282 282 282 283 284 286 287 288
102 103 103 103 103 103 103 104 105 107 108 109 109 110 111 112 113 113 113 113 113 112 110 108 104 100 100 98 93 88 85 81 78 75 72 68 63 58 46 13 326 298 283 279 276 273 273 273 273 273 273 273 273 274 275 276 277 278 279 281 282 282 280 279 279 281 283 284 283 282 283 283 281 281 283 285 286 287 287 287 286 285 284 284 285 285 286 287
99 99 99 99 99 100 101 102 104 105 106 107 108 108 109 110 110 110 110 109 108 106 103 99 95 92 92 90 87 87 86 84 84 85 87 88 90 117 256 265 265 266 268 269 270 270 271 272 272 273 274 274 275 276 276 277 278 279 280 280 281 283 285 283 281 280 280 282 282 281 283 283 281 281 282 284 285 286 287 288 288 288 287 287 286 286 287 288
97 98 98 98 99 100 101 102 103 103 104 105 105 105 104 104 104 103 102 100 99 98 97 95 94 94 95 95 96 97 97 100 107 109 125 168 234 250 255 263 264 265 267 270 272 272 273 274 275 276 277 278 279 279 279 280 280 281 282 282 282 281 283 284 283 282 280 280 281 282 284 286 284 283 283 283 284 284 285 286 287 288 288 288 288 288 289 289
98 99 101 102 102 103 103 103 102 100 100 100 99 98 97 97 97 97 97 96 96 97 97 98 100 101 101 101 104 106 112 125 145 172 218 241 257 263 264 268 270 272 274 275 276 277 277 279 280 280 281 281 281 282 282 282 282 283 283 283 283 281 281 283 283 283 281 281 282 282 284 286 285 284 284 283 283 283 284 285 287 288 289 290 290 291 292 292
100 101 102 103 104 104 103 102 100 99 98 97 96 95 95 96 96 97 98 98 98 98 99 101 103 104 105 108 113 120 148 186 221 246 260 265 269 273 274 275 276 277 279 280 281 282 281 281 282 283 283 284 285 285 285 285 283 283 283 283 283 282 282 284 284 285 283 281 282 282 285 287 285 285 286 285 284 285 286 288 289 290 290 291 292 293 294 295
102 103 103 103 103 103 102 101 101 101 101 100 98 99 99 98 97 97 98 99 98 98 98 101 103 106 108 113 133 176 256 256 263 271 275 276 277 279 280 281 281 282 283 283 284 285 285 285 285 286 286 286 286 287 287 287 286 284 284 284 284 284 283 283 285 287 287 285 283 283 285 287 286 286 287 286 286 288 289 290 291 292 292 293 294 295 295 295
103 103 103 104 104 104 104 104 104 105 103 101 101 103 102 100 99 98 97 98 99 96 94 95 95 99 107 78 270 276 283 277 278 281 283 283 282 282 283 284 284 285 285 286 287 288 288 288 288 287 287 287 287 287 287 289 289 288 286 285 285 285 285 284 283 285 286 286 285 285 287 289 288 287 288 289 290 292 293 294 294 294 294 294 294 294 295 295
103 103 103 104 104 105 105 106 106 105 103 102 103 105 102 100 100 98 97 97 97 93 87 90 61 0 301 293 291 285 288 286 285 287 288 288 288 288 289 290 290 291 290 290 290 289 289 288 288 288 288 288 288 288 289 289 290 290 290 289 288 288 287 287 286 286 286 287 287 287 288 289 290 290 289 291 292 293 293 294 293 293 293 293 293 293 294 294
104 104 104 104 104 105 106 106 105 103 101 103 104 103 101 101 99 96 98 95 90 78 37 335 320 319 300 293 295 291 292 292 292 293 293 293 293 293 294 293 293 293 292 291 291 290 290 290 290 290 290 289 289 290 290 290 290 291 291 292 291 291 291 290 290 290 290 289 289 289 289 289 290 290 290 291 292 292 293 293 293 293 293 293 293 293 292 292
105 105 105 105 105 105 104 104 103 101 101 102 102 102 101 101 97 83 83 54 355 330 323 308 301 305 301 299 298 297 298 297 297 297 297 297 297 296 296 295 293 293 292 292 292 291 290 290 291 291 291 292 292 292 291 291 292 292 292 292 292 293 293 293 293 293 292 292 292 291 291 291 291 291 292 292 292 293 293 294 295 295 294 294 294 293 293 292
107 107 106 107 105 104 103 103 101 99 99 99 99 101 99 98 80 1 324 308 310 308 309 307 304 304 303 301 300 299 299 300 299 299 298 298 297 297 296 295 294 293 292 292 292 292 293 293 294 294 294 294 293 293 293 293 293 293 293 293 293 293 293 294 294 294 294 294 293 293 294 294 295 295 295 294 293 293 293 293 294 294 294 294 294 293 293 293
110 111 110 109 106 105 105 104 100 95 91 89 84 78 51 342 318 316 312 310 309 306 305 305 304 303 303 302 301 301 301 300 300 300 299 299 298 297 297 297 298 298 297 296 296 296 296 296 295 295 296 295 295 295 294 294 295 294 294 294 294 295 295 295 295 295 295 295 296 296 297 297 297 297 296 295 294 293 293 292 292 292 292 292 292 292 292 291
114 113 111 108 104 103 102 97 90 78 64 48 23 353 330 318 314 311 310 309 307 306 305 305 304 304 304 303 302 301 301 301 300 300 300 299 299 299 299 299 299 299 299 298 298 298 297 297 297 298 298 298 298 298 297 297 297 296 296 296 296 296 296 296 296 296 296 297 298 299 299 299 299 298 297 295 294 294 293 292 291 291 290 291 291 291 292 292
112 109 105 98 91 85 76 60 48 27 6 349 334 326 318 312 310 309 308 307 306 306 305 304 304 304 303 303 302 301 301 301 301 301 301 300 301 301 301 301 301 301 301 301 301 301 301 301 301 300 300 300 300 299 299 299 298 298 297 297 296 296 296 296 296 296 297 298 299 299 299 299 298 297 296 295 294 294 294 293 292 291 291 291 291 292 292 292
104 98 91 75 57 39 19 4 354 341 332 326 320 317 314 311 309 308 308 306 305 305 305 304 303 303 303 303 303 303 303 303 303 304 304 304 304 304 304 304 303 303 303 303 303 302 302 302 301 301 301 300 300 299 299 299 299 299 298 298 297 296 295 294 294 295 296 297 297 298 298 297 296 295 294 293 294 295 294 293 293 292 292 291 291 291 291 290
93 77 56 24 0 347 338 331 328 323 320 317 315 313 311 309 308 306 306 305 305 304 304 304 304 304 304 304 305 305 305 305 305 305 305 305 304 304 303 302 302 301 301 300 300 300 301 301 301 301 301 300 300 299 299 298 298 298 298 297 297 296 295 295 294 294 294 295 296 296 296 296 295 293 293 294 296 296 295 295 295 295 294 293 292 292 293 292
64 8 339 330 324 322 320 318 317 316 315 313 312 311 309 307 307 306 305 305 305 305 305 305 306 306 307 307 307 307 307 307 306 306 305 304 304 303 302 302 302 302 301 301 300 300 300 300 299 299 299 300 299 299 299 299 298 298 298 298 297 297 297 296 296 296 296 296 296 296 297 297 295 293 293 296 298 297 296 297 298 298 297 296 295 295 294 294
303 308 312 313 314 315 314 314 314 312 312 310 309 309 308 308 307 306 306 306 306 307 307 308 309 309 309 309 309 308 307 307 306 305 304 303 302 302 301 302 302 302 302 302 302 302 302 301 301 301 301 301 301 300 300 300 299 299 299 298 298 298 298 298 298 299 299 300 300 300 300 300 298 296 296 299 300 299 299 300 300 300 300 298 297 296 295 294
301 305 308 310 310 311 310 310 309 309 309 309 308 308 308 309 308 308 309 309 309 310 310 310 310 310 310 309 308 307 306 305 304 303 302 302 302 301 302 302 302 303 303 303 303 303 303 303 302 303 302 302 301 301 300 300 299 299 299 299 298 299 299 299 301 302 303 303 303 303 302 301 300 298 300 302 302 300 301 301 301 301 299 298 297 297 296 296
302 304 306 306 306 306 306 306 307 308 309 309 309 309 309 310 310 310 310 310 311 311 311 310 310 309 308 307 306 305 304 303 303 302 302 303 303 304 305 305 305 305 305 304 304 303 303 302 302 302 301 301 301 300 300 300 300 300 300 300 300 300 301 303 304 305 304 304 303 302 303 302 301 300 302 303 301 300 300 300 300 300 300 299 299 299 298 298
299 300 300 301 302 303 305 306 308 308 309 309 309 310 310 310 310 311 311 311 310 310 310 309 308 307 306 305 304 304 304 304 304 305 306 306 307 307 308 307 307 306 306 305 304 304 303 302 302 302 302 302 302 302 302 303 303 303 303 303 303 303 304 305 306 306 305 304 303 302 304 305 303 303 305 304 302 301 301 302 302 302 302 302 301 301 300 300
293 295 296 299 301 304 305 306 307 308 309 309 309 310 310 311 310 310 310 309 309 308 307 307 306 305 305 304 304 305 306 307 308 308 309 309 309 309 308 307 307 306 305 305 305 305 305 305 305 305 305 305 305 305 306 307 307 307 306 305 305 305 306 307 308 308 307 306 304 304 308 308 304 305 307 306 304 304 305 305 305 304 303 302 302 302 302 303
292 295 298 301 303 305 305 306 307 308 309 309 310 310 310 310 309 308 308 308 307 307 307 307 306 306 306 307 308 309 309 310 310 310 310 309 309 308 308 307 307 307 307 307 307 308 308 309 309 309 309 309 308 308 309 309 309 308 307 307 306 307 308 309 310 308 307 307 306 306 311 310 304 305 307 305 304 306 306 307 306 304 303 302 302 302 303 303
295 298 301 302 304 305 305 306 308 309 310 310 310 310 309 308 308 308 308 308 308 308 308 308 309 310 310 311 311 311 311 310 310 310 309 309 309 308 308 308 308 309 309 310 310 310 310 311 311 311 311 309 309 309 310 311 310 309 308 307 307 308 309 310 310 308 307 307 307 308 312 311 304 303 304 303 304 306 305 304 303 303 303 302 302 302 302 302
298 300 302 303 304 306 307 309 310 310 310 309 308 308 307 308 308 309 309 309 309 310 311 312 313 313 313 313 312 311 311 310 310 310 310 310 310 310 310 310 311 311 311 311 312 312 312 312 312 312 312 310 310 311 312 312 311 309 308 307 308 309 309 310 309 308 307 307 306 307 309 309 304 301 301 301 302 303 301 300 300 301 302 302 302 302 301 300
300 301 303 304 306 308 309 310 310 309 308 308 307 308 308 309 310 310 311 312 313 314 315 315 314 313 312 312 311 311 311 311 311 311 312 312 312 312 312 312 312 312 313 313 313 313 313 312 312 312 311 309 309 310 312 311 309 308 306 306 306 307 307 307 306 305 305 305 305 306 307 306 303 299 299 300 300 299 297 297 298 298 299 300 300 299 298 298
301 302 304 306 308 309 309 308 308 308 307 308 309 310 311 312 312 314 315 316 316 316 315 314 313 312 312 311 311 312 312 312 313 314 314 314 314 313 313 314 314 315 315 316 316 315 314 313 314 313 310 306 304 304 305 304 303 303 302 302 303 304 303 303 302 303 303 304 305 305 305 305 303 300 299 299 297 295 294 294 295 295 295 296 296 295 295 296
301 303 305 306 307 308 307 307 308 309 310 311 312 313 314 315 316 317 317 316 316 314 314 313 313 313 313 313 313 314 315 315 316 316 316 316 316 316 317 317 317 316 316 316 316 315 314 314 315 315 313 311 311 311 310 308 306 304 303 303 304 303 303 304 303 303 303 303 304 304 303 304 303 301 299 298 295 294 293 293 293 292 292 293 293 293 293 294
302 304 305 307 307 308 309 310 311 313 313 314 315 316 317 317 317 317 316 315 314 314 314 314 314 315 316 316 317 318 318 318 319 319 320 319 319 318 318 317 316 315 316 316 316 315 315 315 317 319 318 317 318 320 319 317 315 312 309 308 308 307 306 305 304 303 303 303 304 303 302 302 302 301 300 298 297 295 294 294 294 293 292 292 292 292 292 293
303 305 307 308 309 311 312 314 315 315 316 316 317 317 317 316 316 315 315 315 315 316 316 317 317 318 319 319 320 321 322 322 322 322 322 320 319 318 317 317 316 317 317 318 319 319 319 320 321 324 324 321 320 321 321 319 318 316 313 313 312 311 309 306 305 305 304 303 304 304 302 302 302 302 301 300 299 298 297 297 297 296 295 295 295 294 294 294
306 307 309 311 313 314 316 316 316 316 316 317 316 316 316 316 316 316 317 317 318 318 319 319 320 320 321 322 323 324 324 323 323 322 320 320 319 320 320 321 321 321 322 323 324 325 325 324 325 328 330 326 323 323 323 321 320 318 317 317 315 313 310 308 307 307 306 305 305 304 303 302 301 301 301 301 300 300 300 300 300 300 299 300 300 299 298 298
309 311 312 314 315 316 315 315 315 316 316 316 316 316 317 317 318 319 319 320 320 321 321 322 323 324 324 324 324 323 322 322 321 322 322 323 323 324 325 325 326 326 327 329 329 329 329 328 328 330 334 332 327 327 327 324 320 319 318 318 317 315 313 311 310 309 308 307 306 305 304 303 302 302 302 302 302 302 302 302 302 302 301 302 302 301 300 300
312 313 315 315 315 314 314 315 315 316 316 317 318 319 319 320 321 321 322 322 323 324 325 326 326 326 326 325 325 325 325 325 326 326 327 327 328 329 330 330 331 332 333 334 334 332 332 332 332 332 335 335 331 329 330 327 323 321 320 319 317 315 312 310 308 307 306 305 305 305 304 303 302 302 302 303 303 303 302 302 301 301 301 301 302 301 300 299
314 314 314 313 313 314 315 316 317 318 319 320 320 321 322 323 323 324 325 326 328 329 329 329 328 328 328 328 328 329 329 330 331 331 332 332 333 334 335 335 336 337 337 338 337 336 335 335 335 335 336 336 333 331 332 329 325 324 322 319 315 312 310 309 308 308 307 306 305 304 303 303 303 302 302 302 302 301 301 301 301 300 300 301 301 302 302 301
314 313 313 313 315 316 318 319 320 321 322 322 323 324 324 325 326 328 330 331 332 332 330 330 330 330 331 331 332 332 333 334 335 335 336 336 337 339 338 339 339 339 340 340 339 338 337 337 338 337 337 338 335 333 333 331 327 325 323 319 317 315 313 312 312 311 310 309 307 306 305 305 305 304 305 305 305 305 305 305 304 302 303 303 304 304 303 303
Height
10707 10707 10708 10708 10709 10709 10709 10709 10711 10712 10713 10714 10714 10714 10714 10715 10715 10714 10714 10714 10714 10714 10714 10713 10713 10713 10713 10713 10713 10713 10712 10712 10712 10710 10710 10710 10709 10708 10706 10705 10704 10703 10702 10701 10700 10699 10698 10697 10696 10695 10695 10696 10697 10697 10698 10699 10701 10702 10702 10703 10704 10704 10704 10704 10704 10703 10703 10703 10702 10702 10701 10701 10700 10700 10699 10699 10698 10697 10696 10695 10694 10693 10693 10692 10689 10687 10686 10684
10704 10704 10704 10705 10705 10705 10705 10706 10707 10708 10709 10710 10710 10710 10711 10711 10711 10711 10710 10710 10710 10710 10710 10709 10709 10709 10708 10708 10708 10707 10707 10707 10707 10706 10705 10704 10703 10702 10700 10698 10697 10696 10695 10695 10694 10693 10692 10691 10690 10690 10691 10691 10692 10693 10695 10696 10697 10698 10699 10700 10700 10700 10700 10701 10701 10700 10700 10700 10699 10699 10698 10698 10698 10697 10697 10696 10695 10694 10693 10692 10691 10690 10689 10688 10686 10683 10682 10681
10700 10700 10700 10701 10701 10701 10701 10702 10703 10705 10706 10706 10706 10707 10708 10708 10708 10707 10706 10705 10705 10705 10705 10705 10705 10704 10704 10703 10703 10702 10702 10701 10701 10700 10699 10699 10698 10696 10695 10693 10692 10691 10690 10690 10689 10688 10687 10686 10686 10687 10687 10688 10689 10690 10692 10693 10694 10695 10696 10697 10697 10697 10697 10698 10698 10698 10697 10697 10697 10696 10696 10695 10695 10694 10694 10693 10692 10691 10690 10689 10687 10686 10685 10684 10683 10680 10677 10676
10696 10696 10696 10697 10697 10697 10698 10698 10699 10701 10702 10702 10703 10703 10704 10703 10703 10702 10701 10701 10701 10700 10700 10700 10700 10700 10700 10699 10698 10697 10697 10696 10695 10695 10694 10694 10693 10691 10690 10689 10688 10687 10687 10686 10685 10684 10684 10683 10684 10684 10685 10686 10687 10688 10690 10691 10692 10693 10693 10694 10694 10695 10695 10695 10696 10695 10695 10695 10694 10694 10694 10693 10692 10691 10690 10689 10689 10687 10686 10685 10683 10682 10680 10679 10678 10676 10672 10670
10692 10692 10693 10693 10693 10694 10695 10695 10696 10697 10697 10698 10699 10699 10699 10699 10698 10697 10696 10696 10696 10696 10695 10695 10695 10696 10696 10695 10694 10692 10692 10692 10691 10690 10689 10689 10688 10687 10687 10686 10685 10684 10683 10682 10682 10682 10682 10682 10682 10682 10683 10684 10685 10687 10688 10689 10690 10691 10691 10692 10692 10693 10693 10693 10693 10693 10693 10693 10692 10692 10691 10690 10689 10688 10687 10686 10685 10684 10682 10680 10678 10677 10676 10673 10672 10671 10668 10664
10689 10689 10689 10689 10690 10691 10692 10692 10692 10693 10693 10694 10694 10694 10694 10694 10692 10691 10691 10691 10691 10691 10691 10691 10691 10691 10691 10690 10690 10689 10688 10687 10687 10686 10685 10685 10684 10684 10683 10682 10682 10681 10681 10680 10680 10680 10680 10681 10681 10682 10682 10683 10685 10686 10687 10688 10689 10690 10690 10691 10691 10691 10691 10691 10691 10691 10691 10691 10690 10689 10689 10688 10687 10685 10684 10684 10681 10679 10678 10676 10673 10672 10670 10668 10666 10665 10663 10660
10685 10685 10685 10685 10686 10687 10687 10688 10688 10688 10689 10689 10689 10689 10689 10688 10687 10687 10687 10687 10687 10686 10686 10686 10686 10686 10686 10686 10685 10685 10684 10684 10684 10683 10682 10682 10681 10681 10680 10680 10679 10679 10679 10679 10679 10679 10680 10680 10681 10681 10682 10684 10685 10686 10686 10687 10688 10689 10689 10689 10689 10690 10690 10689 10689 10689 10689 10689 10688 10687 10686 10685 10685 10682 10681 10681 10677 10674 10674 10672 10670 10666 10664 10662 10660 10658 10657 10654
10680 10681 10681 10681 10682 10682 10682 10683 10683 10683 10683 10683 10683 10684 10684 10684 10683 10682 10682 10682 10682 10682 10682 10682 10682 10682 10682 10682 10682 10681 10681 10681 10681 10680 10680 10680 10679 10679 10679 10679 10678 10678 10678 10678 10679 10679 10680 10680 10681 10682 10683 10684 10685 10686 10686 10687 10687 10688 10688 10688 10689 10689 10688 10688 10688 10688 10688 10687 10687 10685 10683 10683 10682 10678 10676 10677 10674 10669 10669 10667 10665 10662 10658 10655 10654 10652 10650 10648
10676 10676 10676 10676 10677 10677 10677 10677 10678 10678 10678 10678 10678 10678 10678 10678 10678 10678 10678 10678 10678 10678 10678 10678 10678 10679 10679 10679 10679 10679 10678 10678 10679 10679 10679 10678 10678 10678 10678 10678 10678 10678 10678 10679 10679 10680 10680 10681 10682 10683 10684 10684 10685 10686 10686 10687 10687 10688 10688 10688 10688 10688 10688 10688 10687 10687 10686 10686 10685 10683 10680 10679 10679 10675 10671 10672 10670 10665 10663 10662 10660 10657 10653 10649 10647 10645 10643 10641
10671 10671 10671 10671 10671 10671 10671 10672 10672 10672 10672 10672 10673 10673 10673 10673 10673 10674 10674 10675 10675 10675 10676 10676 10676 10676 10677 10677 10677 10677 10677 10677 10678 10678 10678 10678 10678 10678 10678 10678 10679 10679 10679 10680 10680 10681 10682 10682 10683 10684 10685 10685 10686 10687 10687 10688 10688 10688 10688 10688 10688 10687 10687 10687 10686 10686 10684 10683 10683 10680 10675 10673 10675 10672 10666 10666 10665 10661 10658 10655 10653 10650 10646 10643 10641 10638 10636 10633
10666 10667 10666 10666 10666 10666 10666 10667 10667 10667 10667 10668 10668 10669 10669 10670 10670 10671 10672 10672 10673 10673 10674 10674 10675 10675 10675 10676 10676 10676 10677 10677 10677 10677 10678 10678 10679 10679 10679 10680 10680 10680 10681 10681 10682 10683 10683 10684 10685 10686 10686 10687 10688 10688 10688 10688 10688 10688 10688 10687 10687 10686 10686 10685 10684 10684 10682 10681 10680 10678 10671 10666 10670 10668 10662 10660 10658 10655 10653 10649 10646 10643 10638 10635 10634 10633 10630 10626
10663 10663 10662 10662 10662 10662 10662 10663 10663 10663 10664 10665 10666 10666 10667 10668 10669 10669 10670 10671 10672 10672 10673 10673 10674 10675 10675 10676 10676 10677 10677 10677 10678 10679 10679 10680 10680 10681 10681 10682 10682 10683 10683 10684 10685 10685 10686 10687 10687 10688 10688 10689 10689 10689 10689 10689 10688 10688 10687 10687 10686 10685 10684 10683 10682 10681 10679 10678 10677 10677 10669 10658 10660 10662 10657 10653 10650 10650 10648 10642 10638 10635 10631 10629 10627 10627 10624 10619
10660 10660 10659 10659 10660 10660 10660 10661 10661 10662 10663 10664 10665 10665 10666 10667 10668 10668 10669 10670 10671 10671 10672 10673 10674 10675 10675 10676 10677 10677 10678 10679 10680 10681 10682 10682 10683 10683 10684 10685 10686 10686 10687 10687 10688 10688 10689 10689 10689 10690 10690 10690 10690 10689 10689 10689 10688 10687 10686 10685 10684 10682 10681 10680 10680 10678 10676 10675 10673 10674 10670 10654 10647 10651 10650 10645 10643 10644 10643 10637 10632 10627 10625 10623 10621 10621 10618 10613
10658 10658 10658 10658 10658 10659 10659 10660 10661 10662 10662 10663 10664 10665 10666 10666 10667 10668 10669 10670 10671 10671 10673 10673 10674 10675 10676 10677 10678 10680 10681 10682 10683 10684 10685 10685 10686 10687 10688 10688 10689 10690 10690 10690 10690 10690 10691 10691 10691 10690 10690 10690 10689 10689 10688 10688 10686 10686 10685 10684 10682 10680 10678 10677 10676 10674 10672 10670 10667 10668 10669 10655 10638 10635 10638 10638 10636 10638 10638 10632 10626 10621 10618 10616 10614 10614 10613 10609
10657 10657 10657 10657 10658 10658 10659 10660 10661 10662 10662 10663 10664 10665 10666 10667 10668 10668 10669 10670 10671 10672 10674 10675 10676 10678 10679 10681 10682 10683 10684 10685 10686 10687 10688 10689 10689 10690 10691 10691 10691 10692 10692 10692 10692 10692 10692 10691 10691 10691 10690 10689 10689 10688 10687 10686 10685 10684 10682 10681 10680 10677 10675 10672 10671 10669 10667 10665 10661 10659 10663 10655 10638 10625 10623 10628 10630 10631 10631 10625 10620 10618 10614 10610 10606 10603 10603 10602
10657 10657 10657 10657 10658 10659 10660 10660 10661 10662 10663 10665 10666 10666 10667 10668 10670 10670 10671 10673 10674 10675 10677 10678 10680 10681 10683 10684 10686 10687 10688 10688 10689 10690 10691 10691 10692 10692 10693 10693 10693 10693 10693 10693 10693 10692 10692 10692 10691 10690 10690 10689 10687 10686 10685 10684 10682 10681 10679 10677 10676 10673 10671 10668 10665 10663 10662 10660 10655 10652 10655 10652 10637 10622 10614 10615 10619 10623 10624 10620 10615 10614 10612 10607 10601 10595 10592 10592
10657 10658 10658 10658 10659 10660 10661 10662 10663 10665 10666 10667 10668 10669 10670 10672 10673 10674 10675 10676 10678 10679 10681 10682 10684 10685 10687 10688 10689 10690 10691 10691 10692 10693 10693 10694 10694 10694 10695 10695 10695 10695 10694 10694 10693 10693 10692 10691 10690 10689 10688 10686 10685 10684 10682 10680 10679 10677 10675 10672 10670 10668 10666 10664 10660 10658 10657 10655 10650 10645 10648 10645 10633 10623 10614 10607 10606 10610 10613 10612 10610 10608 10606 10602 10597 10591 10585 10582
10660 10660 10660 10661 10662 10663 10664 10665 10667 10668 10669 10671 10672 10674 10675 10676 10677 10678 10679 10681 10682 10684 10685 10686 10687 10689 10691 10691 10692 10693 10694 10694 10695 10696 10696 10696 10696 10696 10696 10696 10696 10695 10694 10694 10692 10691 10690 10689 10688 10686 10685 10683 10682 10680 10678 10677 10675 10673 10671 10668 10666 10663 10659 10658 10656 10653 10651 10650 10644 10639 10642 10638 10627 10621 10614 10606 10600 10600 10600 10600 10600 10599 10598 10596 10591 10585 10579 10574
10663 10663 10664 10665 10666 10667 10668 10669 10671 10672 10674 10675 10676 10678 10680 10681 10682 10683 10684 10685 10686 10687 10689 10690 10691 10693 10694 10694 10695 10696 10697 10697 10698 10698 10698 10698 10698 10697 10697 10696 10695 10694 10693 10692 10690 10689 10688 10686 10685 10683 10682 10680 10678 10676 10675 10673 10671 10669 10667 10664 10663 10659 10654 10651 10650 10648 10646 10644 10638 10633 10634 10629 10621 10617 10612 10604 10597 10593 10591 10588 10587 10587 10587 10587 10584 10579 10573 10568
10667 10667 10668 10669 10671 10672 10673 10675 10676 10678 10679 10680 10681 10683 10685 10686 10688 10688 10689 10690 10691 10692 10692 10693 10695 10696 10697 10697 10698 10699 10699 10699 10699 10699 10699 10698 10698 10697 10696 10695 10694 10693 10691 10690 10688 10687 10685 10684 10682 10680 10679 10677 10675 10673 10671 10669 10667 10665 10663 10660 10657 10656 10651 10644 10642 10641 10639 10639 10634 10629 10628 10619 10612 10611 10606 10600 10593 10587 10585 10582 10580 10577 10575 10574 10572 10569 10565 10561
10672 10672 10673 10674 10676 10677 10678 10680 10681 10683 10685 10686 10687 10688 10690 10691 10692 10693 10693 10694 10695 10696 10696 10697 10698 10699 10699 10700 10700 10700 10700 10700 10699 10699 10698 10697 10697 10696 10695 10693 10692 10691 10690 10688 10686 10685 10683 10681 10679 10677 10676 10674 10672 10670 10667 10665 10663 10661 10658 10655 10650 10648 10647 10639 10634 10633 10630 10630 10628 10624 10622 10612 10602 10601 10597 10591 10586 10581 10579 10577 10575 10571 10566 10562 10559 10557 10553 10549
10677 10678 10679 10680 10681 10682 10683 10684 10685 10687 10689 10690 10691 10692 10694 10695 10696 10697 10697 10697 10698 10699 10699 10700 10700 10701 10701 10701 10701 10701 10700 10700 10699 10698 10697 10697 10696 10695 10694 10692 10691 10689 10688 10686 10684 10682 10680 10678 10676 10674 10672 10670 10668 10665 10662 10659 10657 10656 10652 10648 10644 10640 10640 10636 10628 10623 10619 10620 10621 10619 10616 10606 10596 10593 10587 10580 10576 10575 10574 10571 10568 10564 10558 10552 10548 10545 10542 10537
10681 10683 10684 10685 10686 10686 10687 10688 10689 10691 10692 10693 10694 10696 10697 10698 10700 10701 10701 10700 10701 10702 10702 10702 10702 10702 10702 10702 10701 10701 10700 10699 10699 10698 10697 10696 10695 10694 10692 10691 10689 10687 10685 10683 10681 10679 10677 10675 10673 10671 10668 10666 10664 10661 10658 10653 10648 10648 10646 10641 10637 10632 10631 10630 10626 10618 10610 10606 10609 10612 10610 10599 10591 10587 10578 10569 10566 10567 10567 10563 10559 10554 10548 10543 10538 10534 10531 10527
10686 10687 10688 10689 10690 10690 10691 10692 10693 10694 10695 10695 10697 10699 10700 10701 10702 10703 10703 10703 10703 10704 10704 10704 10703 10703 10703 10702 10701 10701 10700 10699 10699 10698 10696 10695 10694 10692 10690 10689 10687 10685 10683 10680 10678 10676 10673 10671 10669 10666 10664 10661 10659 10655 10652 10648 10641 10638 10637 10634 10631 10626 10622 10620 10619 10616 10607 10597 10594 10600 10603 10594 10584 10579 10572 10563 10559 10557 10556 10552 10547 10541 10536 10533 10530 10525 10519 10514
10691 10692 10692 10694 10694 10694 10695 10696 10697 10697 10698 10699 10701 10702 10703 10704 10704 10705 10705 10705 10705 10705 10705 10704 10704 10704 10703 10702 10702 10701 10700 10699 10698 10697 10695 10694 10692 10690 10688 10686 10683 10681 10679 10676 10674 10671 10669 10666 10663 10661 10658 10655 10653 10649 10646 10643 10637 10631 10627 10624 10621 10618 10614 10610 10607 10606 10603 10594 10585 10585 10590 10589 10579 10570 10566 10560 10554 10550 10546 10543 10538 10530 10524 10521 10520 10517 10511 10504
10695 10696 10697 10698 10698 10699 10699 10700 10700 10701 10701 10703 10704 10705 10705 10706 10706 10707 10707 10707 10706 10706 10705 10705 10704 10704 10703 10702 10701 10700 10699 10698 10697 10695 10693 10691 10689 10687 10685 10683 10680 10678 10675 10672 10669 10667 10664 10661 10659 10655 10652 10649 10646 10643 10639 10636 10632 10627 10622 10617 10612 10608 10604 10600 10596 10593 10591 10585 10579 10573 10573 10578 10573 10565 10563 10558 10550 10545 10538 10533 10528 10520 10513 10509 10506 10503 10499 10495
10699 10699 10700 10701 10702 10702 10702 10703 10703 10704 10705 10706 10706 10707 10708 10708 10708 10708 10708 10707 10707 10706 10705 10705 10704 10703 10702 10701 10700 10698 10697 10696 10694 10693 10691 10689 10686 10684 10682 10679 10676 10673 10671 10668 10664 10661 10659 10657 10654 10650 10646 10643 10640 10636 10632 10629 10625 10620 10615 10610 10605 10599 10594 10590 10585 10581 10578 10573 10568 10562 10558 10561 10560 10555 10555 10551 10543 10538 10530 10522 10515 10505 10498 10493 10488 10484 10480 10478
10702 10703 10704 10704 10705 10705 10706 10706 10706 10707 10707 10708 10708 10709 10709 10709 10709 10708 10708 10707 10707 10706 10705 10704 10703 10702 10701 10699 10698 10697 10695 10694 10692 10690 10688 10686 10684 10681 10678 10675 10672 10669 10666 10664 10660 10656 10654 10651 10647 10644 10640 10636 10632 10628 10624 10621 10617 10612 10607 10602 10597 10592 10586 10581 10576 10570 10566 10561 10556 10552 10547 10546 10545 10541 10540 10536 10528 10526 10522 10516 10507 10496 10486 10478 10473 10469 10465 10461
10705 10706 10707 10707 10707 10708 10708 10708 10708 10709 10709 10709 10709 10709 10709 10709 10709 10708 10707 10707 10706 10705 10704 10703 10702 10700 10699 10698 10697 10695 10693 10692 10690 10688 10685 10683 10680 10677 10674 10671 10667 10663 10659 10656 10654 10651 10648 10645 10641 10637 10633 10628 10623 10619 10615 10611 10607 10602 10597 10592 10586 10582 10576 10572 10567 10561 10555 10549 10543 10540 10536 10532 10531 10526 10522 10518 10512 10509 10508 10504 10499 10488 10477 10468 10461 10456 10452 10448
10708 10708 10709 10709 10709 10710 10710 10710 10710 10710 10710 10710 10710 10710 10709 10709 10708 10708 10707 10706 10705 10704 10703 10702 10701 10699 10698 10696 10695 10693 10691 10689 10687 10685 10682 10679 10676 10673 10670 10667 10663 10659 10655 10650 10646 10644 10641 10637 10633 10629 10625 10619 10613 10607 10603 10600 10596 10591 10586 10583 10578 10572 10566 10560 10555 10550 10546 10540 10533 10529 10524 10518 10512 10506 10502 10498 10493 10492 10491 10488 10485 10478 10469 10460 10451 10444 10438 10433
10710 10710 10711 10711 10711 10711 10711 10711 10711 10711 10710 10710 10710 10710 10709 10709 10708 10707 10706 10705 10704 10703 10702 10701 10699 10698 10696 10694 10692 10690 10688 10686 10683 10681 10678 10675 10672 10668 10664 10662 10657 10652 10647 10641 10636 10633 10630 10627 10623 10619 10615 10610 10605 10597 10590 10586 10582 10578 10573 10571 10569 10564 10558 10552 10545 10540 10537 10534 10525 10519 10516 10509 10499 10487 10482 10480 10476 10473 10472 10469 10467 10463 10458 10451 10442 10434 10428 10421
10712 10712 10712 10712 10712 10712 10712 10712 10712 10711 10711 10711 10710 10710 10709 10709 10708 10707 10706 10705 10703 10702 10700 10699 10697 10695 10694 10692 10690 10688 10685 10682 10680 10676 10673 10670 10667 10662 10659 10656 10652 10647 10642 10635 10629 10622 10619 10616 10612 10608 10604 10600 10597 10590 10582 10574 10568 10564 10559 10556 10553 10550 10548 10544 10540 10535 10533 10531 10521 10511 10507 10501 10490 10472 10463 10466 10466 10459 10454 10449 10447 10446 10443 10439 10432 10425 10419 10410
10713 10713 10713 10713 10713 10713 10713 10712 10712 10712 10712 10711 10710 10710 10709 10708 10708 10706 10705 10704 10702 10700 10699 10697 10695 10693 10691 10689 10686 10684 10681 10678 10676 10672 10668 10664 10661 10657 10653 10650 10647 10644 10641 10635 10629 10621 10614 10610 10604 10599 10594 10589 10585 10581 10575 10567 10560 10554 10549 10545 10539 10533 10532 10531 10529 10527 10528 10529 10520 10507 10498 10489 10478 10460 10447 10452 10456 10447 10438 10432 10429 10428 10425 10423 10419 10413 10405 10396
10714 10714 10714 10714 10714 10714 10714 10713 10713 10712 10712 10711 10710 10710 10709 10707 10707 10705 10704 10702 10701 10699 10697 10695 10693 10690 10688 10685 10682 10679 10677 10674 10670 10667 10663 10659 10655 10651 10646 10643 10639 10636 10633 10629 10625 10618 10609 10604 10599 10594 10588 10583 10576 10569 10564 10557 10550 10543 10537 10533 10526 10518 10514 10511 10510 10508 10510 10517 10512 10501 10490 10474 10463 10452 10440 10443 10445 10434 10426 10420 10416 10412 10407 10404 10402 10399 10392 10383
10716 10716 10716 10715 10715 10715 10715 10714 10713 10712 10712 10711 10710 10709 10708 10706 10705 10704 10702 10701 10699 10697 10695 10692 10690 10687 10684 10681 10678 10675 10671 10668 10664 10661 10657 10652 10649 10645 10641 10637 10632 10628 10625 10621 10617 10610 10601 10592 10588 10584 10578 10573 10566 10559 10553 10545 10537 10530 10522 10517 10512 10505 10499 10494 10494 10491 10489 10495 10493 10485 10477 10460 10446 10438 10433 10434 10432 10420 10413 10410 10405 10399 10391 10387 10384 10382 10378 10371
10717 10717 10717 10716 10716 10715 10715 10714 10713 10712 10711 10710 10709 10708 10707 10705 10704 10702 10700 10698 10696 10694 10691 10689 10686 10683 10680 10676 10673 10669 10666 10663 10658 10654 10651 10646 10642 10639 10635 10632 10627 10623 10618 10614 10609 10604 10596 10583 10575 10572 10567 10561 10555 10547 10540 10533 10525 10518 10511 10505 10498 10492 10486 10481 10482 10480 10475 10476 10475 10468 10462 10449 10433 10426 10426 10426 10420 10409 10402 10398 10393 10385 10377 10371 10368 10365 10362 10356
10718 10717 10717 10716 10716 10715 10714 10713 10712 10712 10711 10709 10708 10707 10705 10704 10702 10700 10698 10695 10693 10691 10688 10685 10682 10679 10675 10671 10667 10663 10659 10655 10652 10648 10644 10640 10636 10632 10628 10624 10619 10614 10609 10604 10600 10596 10591 10580 10568 10562 10557 10551 10545 10537 10529 10522 10514 10506 10500 10494 10488 10482 10478 10472 10469 10467 10463 10461 10462 10457 10451 10439 10422 10414 10417 10416 10406 10397 10395 10390 10383 10374 10364 10356 10353 10350 10347 10342
10718 10717 10716 10716 10715 10714 10713 10713 10712 10711 10710 10708 10707 10705 10703 10701 10699 10697 10694 10692 10689 10687 10684 10681 10678 10674 10670 10665 10661 10656 10652 10648 10645 10641 10637 10633 10629 10624 10620 10615 10610 10605 10599 10594 10589 10584 10582 10575 10563 10553 10547 10541 10535 10528 10521 10513 10503 10494 10486 10480 10475 10470 10469 10468 10460 10452 10447 10443 10442 10445 10447 10432 10409 10401 10403 10399 10387 10379 10379 10378 10370 10361 10351 10342 10337 10334 10331 10329
10717 10717 10716 10715 10715 10714 10713 10712 10711 10710 10708 10707 10705 10703 10701 10698 10696 10693 10691 10688 10686 10683 10679 10676 10672 10669 10665 10660 10656 10651 10648 10643 10639 10635 10630 10626 10621 10616 10611 10606 10600 10595 10589 10584 10579 10573 10569 10565 10556 10544 10535 10529 10522 10517 10512 10505 10495 10485 10475 10467 10461 10456 10456 10459 10453 10439 10429 10424 10416 10423 10440 10429 10397 10387 10388 10379 10368 10362 10359 10359 10353 10345 10337 10328 10321 10317 10315 10313
10717 10716 10716 10715 10714 10713 10712 10711 10709 10708 10706 10705 10702 10700 10698 10695 10693 10690 10687 10685 10682 10678 10674 10670 10666 10662 10658 10655 10650 10646 10642 10638 10633 10629 10624 10619 10614 10609 10603 10597 10591 10585 10580 10574 10569 10564 10558 10554 10548 10538 10527 10517 10509 10505 10503 10498 10488 10477 10466 10455 10448 10444 10443 10445 10444 10430 10416 10408 10397 10399 10424 10424 10392 10376 10373 10361 10352 10349 10343 10338 10334 10327 10321 10314 10307 10302 10298 10296
10717 10716 10715 10714 10713 10712 10710 10709 10708 10706 10704 10702 10700 10697 10695 10692 10689 10686 10683 10680 10676 10673 10668 10664 10660 10656 10652 10648 10644 10639 10635 10631 10626 10622 10617 10612 10607 10602 10596 10590 10583 10577 10572 10566 10560 10555 10550 10545 10540 10533 10523 10512 10503 10498 10495 10490 10479 10466 10456 10444 10436 10432 10428 10427 10429 10422 10410 10401 10386 10379 10399 10411 10389 10369 10361 10349 10341 10339 10332 10322 10316 10311 10306 10299 10293 10288 10282 10278
10716 10715 10714 10713 10711 10710 10709 10707 10705 10703 10701 10699 10696 10694 10691 10688 10685 10682 10679 10675 10671 10667 10663 10659 10655 10651 10647 10642 10637 10632 10628 10624 10619 10614 10610 10605 10599 10594 10587 10582 10577 10571 10566 10560 10554 10548 10542 10538 10534 10527 10517 10503 10493 10489 10487 10481 10471 10459 10447 10435 10427 10422 10415 10409 10406 10403 10400 10395 10382 10369 10378 10392 10384 10363 10349 10341 10334 10330 10322 10310 10301 10297 10292 10285 10279 10274 10267 10259
10715 10714 10712 10711 10710 10708 10707 10705 10703 10700 10698 10696 10693 10690 10687 10684 10681 10677 10674 10670 10666 10662 10658 10653 10649 10645 10640 10636 10631 10626 10621 10617 10612 10607 10602 10596 10590 10585 10580 10574 10569 10564 10559 10553 10547 10540 10533 10529 10527 10524 10516 10504 10493 10486 10481 10473 10463 10453 10442 10430 10422 10415 10409 10403 10394 10386 10385 10383 10374 10362 10359 10370 10373 10357 10341 10335 10329 10320 10310 10300 10291 10285 10280 10275 10268 10261 10252 10243
10713 10712 10711 10709 10708 10707 10705 10702 10700 10697 10695 10692 10689 10686 10683 10679 10676 10672 10669 10665 10661 10657 10652 10648 10643 10639 10635 10630 10626 10621 10616 10611 10606 10601 10595 10589 10583 10578 10572 10567 10562 10557 10552 10547 10540 10533 10524 10517 10513 10509 10503 10497 10494 10491 10486 10477 10465 10452 10442 10432 10422 10411 10401 10396 10388 10377 10372 10370 10366 10354 10341 10345 10351 10343 10334 10330 10321 10310 10300 10292 10285 10277 10270 10265 10259 10251 10242 10232
10712 10710 10709 10708 10706 10704 10702 10699 10697 10694 10691 10688 10685 10682 10678 10675 10671 10668 10664 10660 10656 10652 10647 10642 10638 10633 10629 10624 10619 10614 10609 10604 10599 10594 10589 10582 10576 10570 10564 10559 10554 10549 10545 10540 10535 10527 10518 10510 10504 10497 10483 10471 10469 10471 10468 10464 10457 10446 10435 10428 10420 10407 10394 10385 10378 10368 10358 10356 10359 10349 10329 10325 10328 10323 10320 10317 10308 10298 10290 10284 10278 10270 10262 10256 10250 10242 10233 10225
10711 10709 10707 10706 10703 10701 10699 10696 10694 10691 10687 10684 10681 10678 10675 10672 10668 10664 10660 10656 10652 10647 10643 10637 10632 10627 10622 10617 10612 10607 10602 10598 10593 10588 10582 10576 10569 10563 10558 10552 10547 10542 10538 10534 10529 10522 10514 10507 10501 10494 10479 10462 10455 10454 10448 10440 10435 10427 10418 10415 10409 10399 10387 10376 10368 10361 10349 10342 10347 10343 10323 10310 10308 10305 10302 10298 10291 10283 10274 10269 10267 10260 10252 10246 10241 10234 10226 10218
10709 10707 10705 10703 10701 10698 10695 10693 10690 10687 10683 10681 10678 10675 10672 10668 10664 10660 10656 10651 10647 10642 10638 10632 10627 10622 10617 10611 10607 10602 10596 10591 10586 10581 10576 10569 10562 10556 10550 10544 10538 10533 10529 10525 10520 10513 10507 10501 10497 10492 10480 10462 10453 10452 10445 10433 10423 10413 10404 10399 10395 10387 10377 10367 10359 10353 10341 10329 10330 10331 10319 10302 10293 10289 10284 10276 10271 10264 10255 10249 10248 10242 10235 10231 10228 10223 10216 10208
10707 10705 10703 10700 10698 10695 10692 10689 10686 10683 10681 10678 10675 10672 10668 10664 10660 10656 10651 10647 10642 10637 10632 10628 10623 10618 10614 10609 10604 10599 10594 10588 10582 10577 10571 10564 10557 10550 10542 10535 10529 10524 10520 10515 10510 10504 10498 10492 10489 10488 10479 10462 10450 10446 10440 10429 10418 10406 10396 10388 10379 10372 10364 10356 10351 10345 10334 10321 10314 10312 10307 10293 10281 10274 10270 10261 10254 10247 10237 10230 10226 10219 10212 10209 10207 10203 10197 10191
10705 10702 10700 10697 10695 10692 10689 10686 10684 10681 10678 10675 10671 10667 10664 10659 10655 10651 10646 10642 10637 10632 10628 10623 10619 10614 10610 10605 10600 10596 10592 10586 10580 10573 10566 10559 10552 10545 10537 10530 10524 10518 10513 10508 10500 10493 10489 10483 10478 10479 10476 10461 10447 10441 10433 10423 10412 10403 10395 10383 10368 10358 10349 10341 10336 10332 10323 10312 10302 10295 10289 10281 10270 10260 10254 10247 10239 10231 10222 10213 10205 10197 10190 10188 10188 10183 10177 10171
10702 10699 10697 10695 10692 10689 10687 10684 10682 10678 10675 10671 10667 10663 10659 10655 10651 10646 10642 10637 10633 10628 10623 10619 10614 10610 10605 10600 10595 10590 10584 10578 10573 10566 10560 10554 10546 10539 10531 10525 10519 10512 10506 10500 10491 10482 10478 10474 10467 10466 10467 10457 10444 10437 10430 10417 10404 10395 10389 10379 10364 10350 10341 10332 10326 10322 10315 10306 10297 10287 10277 10270 10262 10253 10244 10236 10229 10220 10211 10202 10193 10184 10177 10174 10172 10168 10162 10156
10699 10697 10694 10692 10689 10687 10685 10682 10679 10675 10671 10667 10663 10659 10654 10650 10646 10642 10637 10632 10628 10623 10619 10614 10609 10604 10599 10594 10589 10583 10577 10571 10565 10558 10551 10545 10538 10530 10521 10515 10511 10505 10497 10491 10483 10472 10465 10462 10456 10450 10452 10448 10437 10430 10425 10414 10401 10390 10382 10373 10361 10347 10334 10325 10316 10309 10301 10293 10286 10277 10268 10259 10252 10245 10239 10234 10227 10217 10207 10195 10183 10173 10167 10164 10159 10154 10147 10141
10696 10694 10691 10689 10687 10685 10682 10679 10675 10671 10667 10663 10659 10654 10650 10646 10641 10637 10633 10628 10624 10619 10615 10610 10606 10600 10595 10590 10584 10579 10572 10566 10559 10552 10545 10538 10530 10520 10511 10505 10499 10493 10488 10482 10475 10465 10456 10450 10443 10435 10433 10432 10424 10418 10415 10406 10395 10386 10373 10360 10349 10336 10323 10315 10306 10297 10288 10277 10267 10258 10252 10245 10236 10227 10222 10218 10213 10206 10196 10184 10168 10155 10150 10149 10146 10140 10132 10125